• In Germany
  • List of Countries
  • For 7 days
  • Water Temperature
  • Satellite Maps
  • Weather Map
  • Weather Widgets
  • user-avatar
    Login

    Hourly Weather Ahmadabad

    Today, 20 October, Saturday

    Time Temperature Precipitation Wind Pressure Humidity
    00:00 +31°C° 0 mm 1 mps 755 mmHg 40%
    01:00 +31°C° 0 mm 1 mps 755 mmHg 41%
    02:00 +30°C° 0 mm 1 mps 754 mmHg 42%
    03:00 +30°C° 0 mm 1 mps 754 mmHg 44%
    04:00 +29°C° 0 mm 1 mps 754 mmHg 45%
    05:00 +29°C° 0 mm 1 mps 754 mmHg 48%
    06:00 +30°C° 0 mm 1 mps 755 mmHg 46%
    07:00 +31°C° 0 mm 1 mps 755 mmHg 44%
    08:00 +32°C° 0 mm 1 mps 756 mmHg 41%
    09:00 +34°C° 0 mm 1 mps 756 mmHg 36%
    10:00 +36°C° 0 mm 1 mps 755 mmHg 31%
    11:00 +35°C° 0 mm 0 mps 756 mmHg 26%
    12:00 +39°C° 0 mm 1 mps 755 mmHg 24%
    13:00 +39°C° 0 mm 1 mps 754 mmHg 22%
    14:00 +40°C° 0 mm 1 mps 754 mmHg 20%
    15:00 +39°C° 0 mm 1 mps 754 mmHg 21%
    16:00 +39°C° 0 mm 1 mps 754 mmHg 23%
    17:00 +37°C° 0 mm 1 mps 753 mmHg 24%
    18:00 +36°C° 0 mm 1 mps 754 mmHg 24%
    19:00 +36°C° 0 mm 2 mps 754 mmHg 25%
    20:00 +34°C° 0 mm 2 mps 755 mmHg 25%
    21:00 +33°C° 0 mm 1 mps 755 mmHg 26%
    22:00 +32°C° 0 mm 1 mps 755 mmHg 26%
    23:00 +32°C° 0 mm 1 mps 755 mmHg 27%

    Tomorrow, 21 October, Sunday

    Time Temperature Precipitation Wind Pressure Humidity
    00:00 +31°C° 0 mm 1 mps 755 mmHg 27%
    01:00 +31°C° 0 mm 1 mps 755 mmHg 28%
    02:00 +30°C° 0 mm 1 mps 754 mmHg 28%
    03:00 +30°C° 0 mm 1 mps 755 mmHg 29%
    04:00 +29°C° 0 mm 1 mps 755 mmHg 30%
    05:00 +29°C° 0 mm 2 mps 755 mmHg 30%
    06:00 +30°C° 0 mm 2 mps 755 mmHg 30%
    07:00 +31°C° 0 mm 2 mps 756 mmHg 31%
    08:00 +31°C° 0 mm 2 mps 756 mmHg 31%
    09:00 +34°C° 0 mm 2 mps 756 mmHg 28%
    10:00 +36°C° 0 mm 2 mps 756 mmHg 24%
    11:00 +38°C° 0 mm 3 mps 756 mmHg 21%
    12:00 +39°C° 0 mm 3 mps 756 mmHg 19%
    13:00 +40°C° 0 mm 3 mps 755 mmHg 17%
    14:00 +40°C° 0 mm 3 mps 754 mmHg 15%
    15:00 +39°C° 0 mm 3 mps 754 mmHg 16%
    16:00 +38°C° 0 mm 3 mps 754 mmHg 16%
    17:00 +37°C° 0 mm 3 mps 754 mmHg 17%
    18:00 +36°C° 0 mm 3 mps 755 mmHg 17%
    19:00 +35°C° 0 mm 3 mps 755 mmHg 16%
    20:00 +33°C° 0 mm 3 mps 756 mmHg 15%
    21:00 +33°C° 0 mm 3 mps 756 mmHg 16%
    22:00 +31°C° 0 mm 3 mps 756 mmHg 16%
    23:00 +30°C° 0 mm 3 mps 756 mmHg 16%

    Day after tomorrow, 22 October, Monday

    Time Temperature Precipitation Wind Pressure Humidity
    00:00 +30°C° 0 mm 3 mps 756 mmHg 16%
    01:00 +29°C° 0 mm 2 mps 755 mmHg 17%
    02:00 +29°C° 0 mm 2 mps 755 mmHg 17%
    03:00 +28°C° 0 mm 2 mps 755 mmHg 18%
    04:00 +28°C° 0 mm 2 mps 755 mmHg 19%
    05:00 +27°C° 0 mm 2 mps 755 mmHg 20%
    06:00 +28°C° 0 mm 2 mps 755 mmHg 21%
    07:00 +29°C° 0 mm 2 mps 756 mmHg 22%
    08:00 +30°C° 0 mm 2 mps 756 mmHg 23%
    09:00 +32°C° 0 mm 2 mps 756 mmHg 21%
    10:00 +34°C° 0 mm 1 mps 756 mmHg 19%
    11:00 +36°C° 0 mm 1 mps 756 mmHg 16%
    12:00 +37°C° 0 mm 1 mps 756 mmHg 15%
    13:00 +39°C° 0 mm 1 mps 755 mmHg 13%
    14:00 +40°C° 0 mm 2 mps 754 mmHg 12%
    15:00 +39°C° 0 mm 2 mps 754 mmHg 14%
    16:00 +38°C° 0 mm 2 mps 754 mmHg 15%
    17:00 +36°C° 0 mm 1 mps 754 mmHg 17%
    18:00 +35°C° 0 mm 1 mps 754 mmHg 18%
    19:00 +33°C° 0 mm 1 mps 754 mmHg 18%
    20:00 +32°C° 0 mm 1 mps 755 mmHg 18%
    21:00 +31°C° 0 mm 1 mps 755 mmHg 19%
    22:00 +30°C° 0 mm 1 mps 755 mmHg 20%
    23:00 +28°C° 0 mm 0 mps 755 mmHg 20%

    23 October, Tuesday

    Time Temperature Precipitation Wind Pressure Humidity
    00:00 +29°C° 0 mm 1 mps 755 mmHg 21%
    01:00 +29°C° 0 mm 1 mps 754 mmHg 22%
    02:00 +28°C° 0 mm 1 mps 754 mmHg 23%
    03:00 +28°C° 0 mm 1 mps 754 mmHg 23%
    04:00 +27°C° 0 mm 1 mps 754 mmHg 24%
    05:00 +27°C° 0 mm 1 mps 754 mmHg 24%
    06:00 +28°C° 0 mm 1 mps 755 mmHg 24%
    07:00 +29°C° 0 mm 1 mps 755 mmHg 24%
    08:00 +30°C° 0 mm 1 mps 756 mmHg 24%
    09:00 +32°C° 0 mm 1 mps 756 mmHg 21%
    10:00 +34°C° 0 mm 1 mps 756 mmHg 19%
    11:00 +34°C° 0 mm 0 mps 756 mmHg 16%
    12:00 +37°C° 0 mm 1 mps 755 mmHg 15%
    13:00 +39°C° 0 mm 1 mps 754 mmHg 14%
    14:00 +40°C° 0 mm 1 mps 754 mmHg 13%
    15:00 +39°C° 0 mm 1 mps 754 mmHg 15%
    16:00 +37°C° 0 mm 1 mps 754 mmHg 18%
    17:00 +36°C° 0 mm 1 mps 754 mmHg 20%
    18:00 +35°C° 0 mm 1 mps 754 mmHg 20%
    19:00 +33°C° 0 mm 1 mps 754 mmHg 20%
    20:00 +32°C° 0 mm 1 mps 755 mmHg 20%
    21:00 +31°C° 0 mm 1 mps 755 mmHg 22%
    22:00 +31°C° 0 mm 1 mps 755 mmHg 24%
    23:00 +30°C° 0 mm 1 mps 755 mmHg 25%

    24 October, Wednesday

    Time Temperature Precipitation Wind Pressure Humidity
    00:00 +29°C° 0 mm 1 mps 755 mmHg 26%
    01:00 +29°C° 0 mm 1 mps 754 mmHg 27%
    02:00 +28°C° 0 mm 1 mps 754 mmHg 28%
    03:00 +26°C° 0 mm 0 mps 754 mmHg 28%
    04:00 +26°C° 0 mm 0 mps 754 mmHg 29%
    05:00 +25°C° 0 mm 0 mps 754 mmHg 29%
    06:00 +29°C° 0 mm 1 mps 755 mmHg 29%
    07:00 +30°C° 0 mm 1 mps 755 mmHg 28%
    08:00 +31°C° 0 mm 1 mps 756 mmHg 28%
    09:00 +32°C° 0 mm 1 mps 756 mmHg 25%
    10:00 +34°C° 0 mm 1 mps 756 mmHg 22%
    11:00 +36°C° 0 mm 1 mps 756 mmHg 19%
    12:00 +37°C° 0 mm 1 mps 755 mmHg 17%
    13:00 +39°C° 0 mm 2 mps 754 mmHg 16%
    14:00 +39°C° 0 mm 2 mps 753 mmHg 15%
    15:00 +38°C° 0 mm 2 mps 753 mmHg 17%
    16:00 +38°C° 0 mm 2 mps 753 mmHg 19%
    17:00 +36°C° 0 mm 1 mps 753 mmHg 21%
    18:00 +34°C° 0 mm 1 mps 754 mmHg 22%
    19:00 +33°C° 0 mm 1 mps 754 mmHg 23%
    20:00 +32°C° 0 mm 1 mps 755 mmHg 24%
    21:00 +31°C° 0 mm 1 mps 755 mmHg 25%
    22:00 +30°C° 0 mm 1 mps 755 mmHg 26%
    23:00 +30°C° 0 mm 1 mps 755 mmHg 27%

    25 October, Thursday

    Time Temperature Precipitation Wind Pressure Humidity
    00:00 +30°C° 0 mm 1 mps 755 mmHg 28%
    01:00 +29°C° 0 mm 1 mps 754 mmHg 29%
    02:00 +29°C° 0 mm 1 mps 754 mmHg 30%
    03:00 +28°C° 0 mm 1 mps 754 mmHg 30%
    04:00 +28°C° 0 mm 1 mps 754 mmHg 30%
    05:00 +28°C° 0 mm 2 mps 755 mmHg 31%
    06:00 +28°C° 0 mm 2 mps 755 mmHg 31%
    07:00 +29°C° 0 mm 2 mps 756 mmHg 31%
    08:00 +30°C° 0 mm 2 mps 757 mmHg 31%
    09:00 +32°C° 0 mm 2 mps 757 mmHg 28%
    10:00 +35°C° 0 mm 2 mps 757 mmHg 24%
    11:00 +37°C° 0 mm 2 mps 757 mmHg 21%
    12:00 +38°C° 0 mm 2 mps 756 mmHg 19%
    13:00 +38°C° 0 mm 2 mps 755 mmHg 18%
    14:00 +39°C° 0 mm 2 mps 754 mmHg 16%
    15:00 +37°C° 0 mm 1 mps 754 mmHg 18%
    16:00 +37°C° 0 mm 1 mps 754 mmHg 20%
    17:00 +36°C° 0 mm 1 mps 754 mmHg 22%
    18:00 +35°C° 0 mm 1 mps 755 mmHg 23%
    19:00 +33°C° 0 mm 1 mps 756 mmHg 23%
    20:00 +32°C° 0 mm 1 mps 756 mmHg 24%
    21:00 +32°C° 0 mm 1 mps 756 mmHg 25%
    22:00 +31°C° 0 mm 1 mps 756 mmHg 25%
    23:00 +31°C° 0 mm 1 mps 756 mmHg 26%
    Show more